[[{"header":{"parameterUnit":"m.s-1","parameterCategory":1,"la1":30.2991,"la2":30.254,"lo1":-89.0895,"lo2":-89.0444,"dy":0.0017,"dx":0.0017,"nx":28,"ny":28,"refTime":"2023-10-10T09:00:00:Z","depth":0,"parameterNumber":2,"parameterNumberName":"U-component_of_WINDS"},"data":[0,0,0,0,0,0,0,0,0,0,0,0,0,0,0,0,0,0,0,0,0,0,0,0,0,0,0,0,0,0,0,0,0,0,0,0,0,0,0,0,0,0,0,0,0,0,0,0,0,0,0,0,0,0,0,0,0,0,-0.8334,-0.8334,0,-0.8276,-0.8276,-0.8275,-0.8219,-0.8218,-0.8217,-0.8217,-0.8158,-0.8157,-0.8156,0,0,0,0,0,0,0,0,0,0,0,0,0,-0.8397,-0.8396,-0.8334,-0.8334,-0.8333,-0.8277,-0.8276,-0.8275,-0.8219,-0.8218,-0.8217,-0.8216,-0.8158,-0.8157,-0.8156,0,0,0,0,0,0,0,0,0,0,0,0,0,-0.8357,-0.8395,-0.8334,-0.8298,-0.8294,-0.8277,-0.8276,-0.8275,-0.8219,-0.8218,-0.8217,-0.8216,-0.8158,-0.8157,-0.8156,-0.8169,0,0,-0.8152,-0.8151,0,0,0,0,0,0,0,0,-0.836,-0.8355,-0.8304,-0.8301,-0.8296,-0.8254,-0.8276,-0.8239,-0.822,-0.8248,-0.8217,-0.8216,-0.8191,-0.8187,-0.8178,-0.8167,-0.8164,-0.8152,-0.8151,-0.815,-0.815,0,0,0,0,0,0,0,-0.8362,-0.8357,-0.8311,-0.8304,-0.8299,-0.8285,-0.8278,-0.8269,-0.8226,-0.8245,-0.8241,-0.8235,-0.8188,-0.818,-0.8176,-0.8163,-0.8152,-0.815,-0.815,-0.8149,-0.8161,-0.8162,0,0,0,0,0,0,-0.8371,-0.836,-0.8313,-0.831,-0.8326,-0.8285,-0.8277,-0.8269,-0.8226,-0.8218,-0.8236,-0.8233,-0.8182,-0.8178,-0.8174,-0.8188,-0.815,-0.8149,-0.8148,-0.8159,-0.8161,-0.8162,0,0,0,0,0,0,-0.8372,-0.8367,-0.8316,-0.8334,-0.8326,-0.8285,-0.8276,-0.8268,-0.8259,-0.8219,-0.8211,-0.8235,-0.8181,-0.8176,-0.8171,-0.8185,-0.8148,-0.8147,-0.8158,-0.816,-0.8161,-0.8215,0,0,0,0,0,0,-0.8374,-0.8368,-0.8373,-0.8334,-0.8325,-0.8314,-0.8276,-0.8268,-0.8257,-0.8252,-0.8216,-0.8209,-0.818,-0.8173,-0.817,-0.8182,-0.8146,-0.8157,-0.8159,-0.8161,-0.8212,-0.8218,-0.8224,0,0,0,0,0,-0.8377,-0.839,-0.8373,-0.8368,-0.833,-0.8315,-0.8309,-0.8276,-0.8258,-0.8263,-0.8237,-0.821,-0.8184,-0.8173,-0.8169,-0.8181,-0.8156,-0.8158,-0.8161,-0.8209,-0.8217,-0.8224,0,0,0,0,0,0,-0.8431,-0.8384,-0.8365,-0.8366,-0.8345,-0.8305,-0.831,-0.8285,-0.8269,-0.8265,-0.8224,-0.8216,-0.8216,-0.8198,-0.8187,-0.8192,-0.8166,-0.8168,-0.8204,-0.8211,-0.8217,-0.8222,-0.8145,0,0,0,0,0,-0.8443,-0.8434,-0.8394,-0.8398,-0.8389,-0.8351,-0.8343,-0.8319,-0.8296,-0.8286,-0.826,-0.8238,-0.8225,-0.8217,-0.8203,-0.8209,-0.82,-0.8215,-0.8221,-0.8226,-0.8228,-0.8231,-0.8237,-0.817,-0.817,-0.817,0,0,-0.8468,-0.8441,-0.8438,-0.8409,-0.8389,-0.8381,-0.8344,-0.8337,-0.8331,-0.8285,-0.8279,-0.8259,-0.8232,-0.8233,-0.8232,-0.8218,-0.8245,-0.8229,-0.8234,-0.8233,-0.8234,-0.824,-0.8246,-0.8172,-0.8172,-0.8171,0,0,-0.8509,-0.8488,-0.849,-0.8471,-0.8442,-0.8417,-0.8418,-0.8382,-0.8367,-0.8361,-0.8326,-0.8318,-0.8296,-0.8279,-0.8267,-0.8302,-0.8277,-0.8298,-0.833,-0.8333,-0.8338,-0.8343,-0.8356,-0.8361,-0.8301,-0.8301,-0.8301,0,-0.8544,-0.853,-0.8494,-0.8489,-0.8477,-0.8436,-0.8438,-0.8422,-0.839,-0.8383,-0.8367,-0.8339,-0.8318,-0.8315,-0.8323,-0.8315,-0.8315,-0.8303,-0.834,-0.8344,-0.8348,-0.836,-0.8365,-0.8304,-0.8303,-0.8303,-0.8303,0,-0.8574,-0.8566,-0.8571,-0.8541,-0.853,-0.8529,-0.8493,-0.8486,-0.8463,-0.844,-0.8434,-0.8407,-0.8387,-0.8384,-0.8361,-0.8377,-0.837,-0.8348,-0.8321,-0.8358,-0.8369,-0.8373,-0.8308,-0.8307,-0.8306,-0.8305,0,0,-0.8648,-0.8599,-0.8602,-0.8588,-0.8553,-0.8546,-0.8543,-0.8523,-0.8518,-0.8498,-0.8494,-0.8477,-0.8457,-0.8443,-0.8419,-0.8421,-0.8452,-0.8399,-0.8398,-0.841,-0.8468,-0.8485,-0.8491,-0.8434,-0.8435,-0.8436,-0.8471,0,-0.8684,-0.8676,-0.8644,-0.8646,-0.8637,-0.8598,-0.8595,-0.8574,-0.8552,-0.8542,-0.8518,-0.8507,-0.8481,-0.8472,-0.8473,-0.8448,-0.8463,-0.8445,-0.8431,-0.8431,-0.844,-0.8497,-0.8515,-0.8549,-0.8475,-0.8475,-0.8476,0,-0.8725,-0.8708,-0.8709,-0.8675,-0.867,-0.8668,-0.8648,-0.8638,-0.8614,-0.8598,-0.8583,-0.8555,-0.855,-0.8525,-0.8518,-0.8506,-0.8499,-0.8485,-0.8486,-0.8484,-0.8456,-0.8497,-0.8559,-0.8565,-0.8482,-0.8481,-0.8481,0,-0.878,-0.8757,-0.8754,-0.8744,-0.8704,-0.8703,-0.8687,-0.8661,-0.8651,-0.8633,-0.8627,-0.8609,-0.8599,-0.8586,-0.8554,-0.8538,-0.8551,-0.8522,-0.8538,-0.8539,-0.8542,-0.8543,-0.8605,-0.8537,-0.8537,-0.8537,-0.8537,0,-0.8824,-0.8827,-0.8778,-0.8777,-0.8779,-0.8741,-0.8744,-0.8724,-0.8701,-0.8695,-0.866,-0.8655,-0.8613,-0.8604,-0.8579,-0.8577,-0.8573,-0.856,-0.8554,-0.8564,-0.8566,-0.8559,-0.8556,-0.8538,-0.8538,-0.8537,-0.8537,0,-0.8886,-0.8854,-0.8849,-0.8811,-0.8802,-0.8805,-0.8773,-0.877,-0.8747,-0.874,-0.8736,-0.8699,-0.8686,-0.8653,-0.8632,-0.8615,-0.862,-0.8608,-0.8629,-0.8625,-0.8642,-0.8642,-0.8703,-0.871,-0.8637,-0.8638,-0.8638,0,-0.8917,-0.8917,-0.888,-0.8874,-0.8859,-0.8849,-0.8839,-0.8802,-0.8793,-0.8765,-0.8766,-0.8751,-0.8736,-0.8718,-0.8689,-0.8673,-0.866,-0.8683,-0.8657,-0.8668,-0.8661,-0.8662,-0.8662,-0.8689,-0.869,-0.869,-0.8691,0,-0.8974,-0.8958,-0.8945,-0.8927,-0.8916,-0.89,-0.8881,-0.8878,-0.8837,-0.8829,-0.8816,-0.8805,-0.8783,-0.8768,-0.8748,-0.873,-0.8704,-0.8699,-0.8702,-0.8713,-0.8725,-0.8719,-0.8645,-0.8698,-0.8697,-0.8697,-0.8696,-0.8696,-0.9022,-0.9021,-0.8995,-0.8982,-0.8964,-0.8948,-0.8944,-0.892,-0.8908,-0.8887,-0.8866,-0.8855,-0.8831,-0.88,-0.8785,-0.8776,-0.8762,-0.8766,-0.8767,-0.8769,-0.8774,-0.8726,-0.8772,-0.8772,-0.8772,-0.8771,-0.8771,0,-0.9079,-0.906,-0.9048,-0.9024,-0.9013,-0.8989,-0.8968,-0.8961,-0.8952,-0.8931,-0.8918,-0.8903,-0.8888,-0.8858,-0.8841,-0.884,-0.8828,-0.8837,-0.8837,-0.8834,-0.8787,-0.8786,-0.8847,-0.8847,-0.8847,-0.8847,-0.8847,-0.8847,-0.9107,-0.9105,-0.9086,-0.9074,-0.9055,-0.9044,-0.9034,-0.9019,-0.9003,-0.8987,-0.8975,-0.8956,-0.8931,-0.8912,-0.8898,-0.889,-0.8886,-0.8899,-0.8887,-0.8844,-0.8837,-0.883,-0.8829,-0.8898,-0.8898,-0.8934,-0.8935,-0.8935]},{"header":{"parameterUnit":"m.s-1","parameterCategory":1,"la1":30.2991,"la2":30.254,"lo1":-89.0895,"lo2":-89.0444,"dy":0.0017,"dx":0.0017,"nx":28,"ny":28,"refTime":"2023-10-10T09:00:00:Z","depth":0,"parameterNumber":3,"parameterNumberName":"V-component_of_WINDS"},"data":[0,0,0,0,0,0,0,0,0,0,0,0,0,0,0,0,0,0,0,0,0,0,0,0,0,0,0,0,0,0,0,0,0,0,0,0,0,0,0,0,0,0,0,0,0,0,0,0,0,0,0,0,0,0,0,0,0,0,2.85,2.85,0,2.8451,2.845,2.845,2.8402,2.8401,2.84,2.84,2.8346,2.8345,2.8344,0,0,0,0,0,0,0,0,0,0,0,0,0,2.855,2.8549,2.85,2.85,2.8499,2.8451,2.845,2.845,2.8402,2.8401,2.84,2.84,2.8346,2.8345,2.8344,0,0,0,0,0,0,0,0,0,0,0,0,0,2.8517,2.8549,2.85,2.8469,2.8466,2.8451,2.845,2.845,2.8402,2.8401,2.84,2.8399,2.8347,2.8346,2.8344,2.8355,0,0,2.834,2.834,0,0,0,0,0,0,0,0,2.8519,2.8515,2.8475,2.8472,2.8468,2.8432,2.8448,2.8418,2.8402,2.8426,2.84,2.8399,2.8375,2.8371,2.8364,2.8352,2.835,2.834,2.8339,2.8339,2.8339,0,0,0,0,0,0,0,2.8522,2.8517,2.8481,2.8474,2.847,2.8457,2.8451,2.8442,2.8406,2.8424,2.842,2.8415,2.8373,2.8366,2.8363,2.8349,2.834,2.8339,2.8338,2.8338,2.8343,2.8344,0,0,0,0,0,0,2.8529,2.852,2.8482,2.8479,2.8492,2.8457,2.8451,2.8444,2.8406,2.84,2.8416,2.8413,2.8368,2.8364,2.836,2.837,2.8339,2.8338,2.8337,2.8342,2.8343,2.8344,0,0,0,0,0,0,2.853,2.8526,2.8484,2.8498,2.8492,2.8457,2.845,2.8444,2.8436,2.8401,2.8394,2.8415,2.8367,2.8362,2.8357,2.8367,2.8337,2.8336,2.8341,2.8343,2.8344,2.8389,0,0,0,0,0,0,2.8532,2.8527,2.8531,2.8499,2.8492,2.8482,2.8451,2.8443,2.8434,2.843,2.8398,2.8391,2.8366,2.8359,2.8356,2.8365,2.8335,2.834,2.8342,2.8343,2.8386,2.8392,2.8396,0,0,0,0,0,2.8534,2.8545,2.8532,2.8527,2.8496,2.8483,2.8479,2.845,2.8435,2.8439,2.8416,2.8393,2.8367,2.8359,2.8354,2.8364,2.8339,2.8341,2.8343,2.8384,2.839,2.8396,0,0,0,0,0,0,2.8578,2.854,2.8525,2.8526,2.8509,2.8475,2.8478,2.8458,2.8443,2.844,2.8404,2.8397,2.8395,2.8379,2.8371,2.8372,2.835,2.8351,2.8382,2.8388,2.8393,2.8396,2.8334,0,0,0,0,0,2.8589,2.8582,2.8549,2.8553,2.8545,2.8514,2.8507,2.8487,2.8466,2.8458,2.8435,2.8415,2.8402,2.8394,2.8381,2.8384,2.8376,2.8388,2.8393,2.8398,2.8399,2.8398,2.8403,2.8351,2.8351,2.8351,0,0,2.8609,2.8588,2.8585,2.8562,2.8545,2.8538,2.8507,2.8501,2.8495,2.8456,2.845,2.8432,2.8408,2.8407,2.8405,2.8393,2.8411,2.84,2.8404,2.8402,2.8401,2.8406,2.841,2.8352,2.8352,2.8352,0,0,2.8643,2.8626,2.8628,2.8613,2.8589,2.8568,2.8569,2.8538,2.8525,2.8519,2.8489,2.8481,2.8461,2.8444,2.8433,2.8461,2.8438,2.8458,2.8483,2.8483,2.8487,2.8491,2.8499,2.8503,2.8459,2.8459,2.846,0,2.8671,2.866,2.8631,2.8627,2.8617,2.8583,2.8584,2.857,2.8543,2.8536,2.8524,2.8497,2.8478,2.8472,2.8479,2.8472,2.847,2.8461,2.8489,2.8492,2.8495,2.8503,2.8507,2.8462,2.8462,2.8461,2.8461,0,2.8695,2.8688,2.8692,2.8668,2.8658,2.8656,2.8627,2.8621,2.8602,2.8582,2.8575,2.8551,2.8532,2.853,2.851,2.8521,2.8514,2.8496,2.8473,2.8503,2.851,2.8513,2.8465,2.8464,2.8464,2.8463,0,0,2.8754,2.8714,2.8716,2.8704,2.8676,2.8669,2.8666,2.8649,2.8643,2.8626,2.8621,2.8605,2.8588,2.8576,2.8555,2.8555,2.8578,2.8537,2.8535,2.8544,2.8586,2.8599,2.8603,2.8563,2.8564,2.8564,2.8588,0,2.8781,2.8774,2.8748,2.8748,2.8741,2.8709,2.8706,2.8688,2.8669,2.8659,2.8639,2.8627,2.8607,2.8599,2.8598,2.8575,2.8585,2.8573,2.8557,2.8557,2.8563,2.8607,2.862,2.8644,2.8591,2.8591,2.8591,0,2.8812,2.8798,2.8797,2.8769,2.8765,2.8763,2.8745,2.8736,2.8715,2.8701,2.8688,2.8665,2.8658,2.8638,2.8628,2.8621,2.8613,2.8601,2.8601,2.8597,2.8575,2.8603,2.8651,2.8654,2.8596,2.8595,2.8595,0,2.8853,2.8834,2.8831,2.8822,2.879,2.8789,2.8775,2.8753,2.8744,2.8728,2.8721,2.8705,2.8695,2.8682,2.8655,2.8643,2.8647,2.8625,2.8635,2.8635,2.8635,2.8635,2.8682,2.8633,2.8633,2.8633,2.8633,0,2.8886,2.8887,2.8849,2.8847,2.8847,2.8817,2.8817,2.88,2.8781,2.8774,2.8746,2.874,2.8705,2.8695,2.8674,2.8668,2.8664,2.8652,2.8646,2.8654,2.8655,2.8647,2.8644,2.8634,2.8634,2.8634,2.8633,0,2.8931,2.8907,2.8901,2.8871,2.8864,2.8865,2.8838,2.8835,2.8816,2.8807,2.8804,2.8773,2.8759,2.8731,2.871,2.8696,2.8694,2.8685,2.8702,2.8698,2.8708,2.8707,2.8749,2.8753,2.8704,2.8704,2.8705,0,2.8953,2.8953,2.8923,2.8918,2.8905,2.8896,2.8887,2.8858,2.885,2.8826,2.8825,2.881,2.8796,2.8776,2.875,2.8734,2.8723,2.8739,2.872,2.8727,2.8721,2.8721,2.872,2.8742,2.8743,2.8743,2.8744,0,2.8994,2.8982,2.897,2.8955,2.8945,2.8932,2.8916,2.8913,2.888,2.8872,2.8859,2.8848,2.8827,2.8812,2.8792,2.8776,2.8754,2.875,2.8751,2.8758,2.8768,2.8762,2.8712,2.8749,2.8748,2.8748,2.8748,2.8748,2.9027,2.9025,2.9004,2.8992,2.8978,2.8964,2.896,2.894,2.8929,2.891,2.8894,2.8882,2.886,2.8831,2.8817,2.8806,2.8795,2.8797,2.8797,2.8798,2.8801,2.8771,2.8802,2.8802,2.8802,2.8802,2.8802,0,2.9065,2.905,2.904,2.902,2.901,2.8993,2.8975,2.8967,2.8958,2.894,2.8927,2.8912,2.8897,2.8871,2.8854,2.885,2.884,2.8846,2.8845,2.8842,2.8812,2.8812,2.8855,2.8855,2.8855,2.8855,2.8855,2.8855,2.9083,2.9079,2.9065,2.9053,2.9038,2.9027,2.9018,2.9005,2.899,2.8975,2.8963,2.8947,2.8925,2.8906,2.8892,2.8884,2.8878,2.8888,2.8878,2.8849,2.8844,2.8839,2.8839,2.8888,2.8888,2.8909,2.8909,2.8909]}]]